Intelsat 3F5 C - Orbit

View from above orbital plane
View from above orbital plane
View from above satellite
View from above satellite

Ground track
Ground track

The orbit data is extracted from the following two-line orbital elements,

1 04053U 69064C   13139.17052729  .00055488 -23878-5  41434-3 0  2128
2 04053 030.2815 007.3497 0775610 028.3226 118.8900 14.27859138869156
Epoch (UTC): 19 May 2013 04:05:33
Eccentricity: 0.0775610
inclination: 30.2815°
perigee height: 242 km
apogee height: 1355 km
right ascension of ascending node: 7.3497°
argument of perigee: 28.3226°
revolutions per day: 14.27859138
mean anomaly at epoch: 118.8900°
orbit number at epoch: 86915

The dashed part of the orbit path shows where the satellite is in the earth's shadow,  

Developed and maintained by Chris Peat, Heavens-Above GmbH. Please read the updated FAQ before sending e-mail. Imprint. DLR